Columbia Airport, CA

4:37 PM PDT on October 21, 2019 (GMT -0700)
Columbia Airport

Weather History for KO22 - July, 2019

Change the Weather History Date:

Wednesday, July 10, 2019

  Actual Average (KMOD) Record (KMOD)
Temperature  
Mean Temperature 73 °F -  
Max Temperature 91 °F 92 °F 110 °F (2002)
Min Temperature 55 °F 60 °F 49 °F (1965)
Cooling Degree Days 8    
Growing Degree Days 23 (Base 50)    
Moisture  
Dew Point 49 °F    
Average Humidity 47    
Maximum Humidity 82    
Minimum Humidity 18    
Precipitation  
Precipitation 0.00 in - - ()
Sea Level Pressure  
Sea Level Pressure 30.09 in    
Wind  
Wind Speed 2 mph (WSW)    
Max Wind Speed 9 mph    
Max Gust Speed -    
Visibility 10 miles    
Events      
Averages and records for this station are not official NWS values.
T = Trace of Precipitation, MM = Missing Value Source: NWS Daily Summary

Daily Weather History Graph

Daily Weather History Graph

Search for Another Location

Airport or City:

Astronomy

Jul. 10, 2019 Rise Set
Actual Time 5:47 AM PDT 8:26 PM PDT
Civil Twilight 5:16 AM PDT 8:57 PM PDT
Nautical Twilight 4:38 AM PDT 9:35 PM PDT
Astronomical Twilight 3:54 AM PDT 10:18 PM PDT
Moon 2:41 PM PDT (7/10) 1:25 AM PDT (7/10)
Length of Visible Light 15h 40m
Length of Day
14h 38m
Waxing Gibbous, 65% of the Moon is Illuminated
Jul 10
Waxing Gibbous
Jul 16
Full
Jul 24
Last Quarter
Jul 31
New
Aug 7
First Quarter

Hourly Weather History & Observations

Time (PDT) Temp. Dew Point Humidity Pressure Visibility Wind Dir Wind Speed Gust Speed Precip Events Conditions
12:15 AM 62.6 °F 50.0 °F 63% 30.08 in 10.0 mi Calm Calm - N/A   Clear
12:35 AM 60.8 °F 50.0 °F 68% 30.08 in 10.0 mi Calm Calm - N/A   Clear
12:55 AM 59.0 °F 50.0 °F 72% 30.08 in 10.0 mi Calm Calm - N/A   Clear
1:15 AM 60.8 °F 50.0 °F 68% 30.07 in 10.0 mi NE 3.5 mph - N/A   Clear
1:35 AM 59.0 °F 50.0 °F 72% 30.07 in 10.0 mi Calm Calm - N/A   Clear
1:55 AM 59.0 °F 50.0 °F 72% 30.07 in 10.0 mi Calm Calm - N/A   Clear
2:15 AM 59.0 °F 48.2 °F 67% 30.07 in 10.0 mi Calm Calm - N/A   Clear
2:35 AM 57.2 °F 48.2 °F 72% 30.07 in 10.0 mi Calm Calm - N/A   Clear
2:55 AM 57.2 °F 48.2 °F 72% 30.07 in 10.0 mi Calm Calm - N/A   Clear
3:15 AM 57.2 °F 48.2 °F 72% 30.07 in 10.0 mi Calm Calm - N/A   Clear
3:35 AM 57.2 °F 48.2 °F 72% 30.06 in 10.0 mi Calm Calm - N/A   Clear
3:55 AM 57.2 °F 48.2 °F 72% 30.07 in 10.0 mi Calm Calm - N/A   Clear
4:15 AM 55.4 °F 48.2 °F 77% 30.07 in 10.0 mi Calm Calm - N/A   Clear
4:35 AM 55.4 °F 48.2 °F 77% 30.07 in 10.0 mi Calm Calm - N/A   Clear
4:55 AM 55.4 °F 48.2 °F 77% 30.08 in 10.0 mi Calm Calm - N/A   Clear
5:15 AM 55.4 °F 48.2 °F 77% 30.08 in 10.0 mi Calm Calm - N/A   Clear
5:35 AM 55.4 °F 48.2 °F 77% 30.09 in 10.0 mi Calm Calm - N/A   Clear
5:55 AM 55.4 °F 48.2 °F 77% 30.09 in 10.0 mi Calm Calm - N/A   Clear
6:15 AM 55.4 °F 48.2 °F 77% 30.10 in 10.0 mi Calm Calm - N/A   Clear
6:35 AM 55.4 °F 50.0 °F 82% 30.10 in 10.0 mi Calm Calm - N/A   Clear
6:55 AM 59.0 °F 50.0 °F 72% 30.10 in 10.0 mi Calm Calm - N/A   Clear
7:15 AM 60.8 °F 51.8 °F 72% 30.10 in 10.0 mi Calm Calm - N/A   Clear
7:35 AM 64.4 °F 51.8 °F 64% 30.10 in 10.0 mi Calm Calm - N/A   Clear
7:55 AM 68.0 °F 53.6 °F 60% 30.10 in 10.0 mi Calm Calm - N/A   Clear
8:15 AM 71.6 °F 53.6 °F 53% 30.11 in 10.0 mi Calm Calm - N/A   Clear
8:35 AM 73.4 °F 50.0 °F 44% 30.11 in 10.0 mi Calm Calm - N/A   Clear
8:55 AM 75.2 °F 50.0 °F 41% 30.11 in 10.0 mi Calm Calm - N/A   Clear
9:15 AM 78.8 °F 51.8 °F 39% 30.11 in 10.0 mi Calm Calm - N/A   Clear
9:35 AM 80.6 °F 50.0 °F 34% 30.11 in 10.0 mi Calm Calm - N/A   Clear
9:55 AM 80.6 °F 48.2 °F 32% 30.11 in 10.0 mi Calm Calm - N/A   Clear
10:15 AM 80.6 °F 48.2 °F 32% 30.11 in 10.0 mi Calm Calm - N/A   Clear
10:35 AM 82.4 °F 50.0 °F 32% 30.11 in 10.0 mi Variable 3.5 mph - N/A   Clear
11:15 AM 84.2 °F 48.2 °F 29% 30.12 in 10.0 mi SW 5.8 mph - N/A   Clear
11:35 AM 86.0 °F 46.4 °F 25% 30.11 in 10.0 mi WSW 4.6 mph - N/A   Clear
11:55 AM 84.2 °F 42.8 °F 23% 30.12 in 10.0 mi Variable 3.5 mph - N/A   Clear
12:15 PM 86.0 °F 44.6 °F 23% 30.12 in 10.0 mi WSW 5.8 mph - N/A   Clear
12:35 PM 87.8 °F 46.4 °F 24% 30.11 in 10.0 mi SW 5.8 mph - N/A   Clear
12:55 PM 87.8 °F 44.6 °F 22% 30.11 in 7.0 mi SW 6.9 mph - N/A   Clear
1:15 PM 87.8 °F 44.6 °F 22% 30.11 in 7.0 mi WSW 5.8 mph - N/A   Clear
1:35 PM 87.8 °F 42.8 °F 21% 30.11 in 10.0 mi Variable 4.6 mph - N/A   Clear
1:55 PM 89.6 °F 42.8 °F 20% 30.11 in 9.0 mi Variable 6.9 mph - N/A   Clear
2:15 PM 91.4 °F 42.8 °F 18% 30.11 in 10.0 mi WSW 4.6 mph - N/A   Clear
2:35 PM 91.4 °F 44.6 °F 20% 30.10 in 10.0 mi Variable 3.5 mph - N/A   Clear
2:55 PM 91.4 °F 46.4 °F 21% 30.10 in 10.0 mi SSW 5.8 mph - N/A   Clear
3:15 PM 89.6 °F 48.2 °F 24% 30.10 in 10.0 mi WSW 8.1 mph - N/A   Clear
3:35 PM 91.4 °F 48.2 °F 23% 30.10 in 10.0 mi SSW 9.2 mph - N/A   Clear
3:55 PM 91.4 °F 48.2 °F 23% 30.10 in 10.0 mi SSW 6.9 mph - N/A   Clear
4:15 PM 89.6 °F 48.2 °F 24% 30.09 in 10.0 mi SSW 9.2 mph - N/A   Clear
4:35 PM 89.6 °F 48.2 °F 24% 30.09 in 10.0 mi WSW 6.9 mph - N/A   Clear
4:55 PM 89.6 °F 48.2 °F 24% 30.08 in 6.0 mi West 9.2 mph - N/A   Haze
5:15 PM 89.6 °F 46.4 °F 22% 30.08 in 10.0 mi WSW 8.1 mph - N/A   Clear
5:35 PM 87.8 °F 46.4 °F 24% 30.08 in 10.0 mi SW 5.8 mph - N/A   Clear
5:55 PM 87.8 °F 46.4 °F 24% 30.08 in 10.0 mi Variable 5.8 mph - N/A   Clear
6:15 PM 87.8 °F 46.4 °F 24% 30.07 in 10.0 mi West 5.8 mph - N/A   Clear
6:35 PM 87.8 °F 48.2 °F 25% 30.07 in 10.0 mi Variable 5.8 mph - N/A   Clear
6:55 PM 86.0 °F 48.2 °F 27% 30.07 in 10.0 mi WNW 8.1 mph - N/A   Clear
7:15 PM 84.2 °F 48.2 °F 29% 30.07 in 10.0 mi West 6.9 mph - N/A   Clear
7:35 PM 82.4 °F 50.0 °F 32% 30.08 in 10.0 mi Variable 6.9 mph - N/A   Clear
7:55 PM 80.6 °F 50.0 °F 34% 30.08 in 10.0 mi WNW 6.9 mph - N/A   Clear
8:15 PM 78.8 °F 50.0 °F 36% 30.08 in 10.0 mi WNW 5.8 mph - N/A   Clear
8:35 PM 77.0 °F 50.0 °F 39% 30.08 in 10.0 mi Variable 5.8 mph - N/A   Clear
8:55 PM 75.2 °F 51.8 °F 44% 30.09 in 10.0 mi Variable 3.5 mph - N/A   Clear
9:15 PM 75.2 °F 51.8 °F 44% 30.09 in 10.0 mi WNW 5.8 mph - N/A   Clear
9:35 PM 73.4 °F 51.8 °F 47% 30.09 in 10.0 mi Calm Calm - N/A   Clear
9:55 PM 71.6 °F 51.8 °F 50% 30.10 in 10.0 mi Calm Calm - N/A   Clear
10:15 PM 69.8 °F 53.6 °F 56% 30.10 in 10.0 mi Calm Calm - N/A   Clear
10:35 PM 68.0 °F 53.6 °F 60% 30.10 in 10.0 mi Calm Calm - N/A   Clear
10:55 PM 68.0 °F 53.6 °F 60% 30.10 in 10.0 mi Calm Calm - N/A   Clear
11:15 PM 68.0 °F 51.8 °F 56% 30.10 in 10.0 mi Calm Calm - N/A   Clear
11:35 PM 66.2 °F 51.8 °F 60% 30.10 in 10.0 mi Calm Calm - N/A   Clear
11:55 PM 66.2 °F 53.6 °F 64% 30.09 in 10.0 mi Calm Calm - N/A   Clear